www.pogodaiklimat.ru

Погода и климат >> Архив погоды >> Россия >> Чукотка >> Уэлен


ПОГОДА в Уэлене

АРХИВ ПОГОДЫ в Уэлене

Время (UTC), дата Ветер
(напр.,м/с)
 
Видим.   Явления Облачность Т
(С)
Тd
(С)
f
(%)
Тe
(С)
Тes
(С)
Комфортность P
(гПа)
Po
(гПа)
Тmin
(С)
Tmax
(С)
R
(мм)
R24
(мм)
S
(см)
18 10.11 Ю 2
{5}
50 км 4/0 600 м
[Ci fib]
-10.1 -17.4 55 -14 -14 1021.0 1020.1 -10.1
21 10.11 Ю 3
{5}
50 км 10/1 600 м
[Sc Ci fib]
-11.3 -16.6 65 -17 -17 1023.5 1022.6
00 11.11 Ю 2
{4}
50 км 10/3 600 м
[Sc Ac trans Cs]
-10.5 -16.8 60 -15 -15 1024.1 1023.2
03 11.11 штиль 0
{3}
50 км 10/5 600 м
[Sc As trans]
-7.8 -12.8 67 -8 -8 1023.5 1022.6
06 11.11 Ю 8
{11}
45 км 10/8 600 м
[Sc As op]
-2.6 -6.3 76 -11 -11 1022.5 1021.6 -2.5
09 11.11 Ю 13-15
{17}
9000 м слабый ливневой снег {метель} 10/9 300 м
[Cb cap As op]
+0.3 -0.8 92 -9 -9 1020.6 1019.7
12 11.11 Ю 10-11
{16}
26 км {ливн. осадки, метель} 10/10 300 м
[Sc]
+0.1 -1.9 86 -8 -8 1019.0 1018.1
15 11.11 Ю 8-10
{16}
7000 м дымка 10/10 200 м
[St]
+1.6 +1.1 96 -6 -6 1017.4 1016.5
18 11.11 Ю 16-17
{20}
28 км 9/9 200 м
[St]
+2.1 +0.5 89 -7 -7 1014.3 1013.4 -2.6 0.1
21 11.11 Ю 15-18
{21}
20 км 10/8 300 м
[Cu Sc Ci fib]
+2.3 +0.4 87 -6 -6 1011.5 1010.6
00 12.11 Ю 21-25
{26}
18 км 10/9 300 м
[St Ci fib]
+2.2 +0.6 89 -8 -8 1006.5 1005.6
03 12.11 Ю 14-18
{26}
20 км {ливн. осадки} 8/6 300 м
[St Ci fib]
+1.9 0.0 87 -7 -7 1003.9 1003.0
06 12.11 З 11-13
{25}
22 км {ливн. осадки} 10/8 300 м
[St Ci fib]
-1.1 -3.4 84 -10 -10 1008.7 1007.8 +2.5 0.0
09 12.11 З 13-16
{19}
24 км 9/9 300 м
[St]
-2.2 -5.8 76 -12 -12 1013.2 1012.3
12 12.11 СЗ 8-10
{19}
24 км 8/6 300 м
[St Ci fib]
-1.6 -5.7 74 -9 -9 1018.5 1017.6
15 12.11 З 5
{12}
30 км 9/9 300 м
[St]
-3.0 -6.8 75 -10 -10 1022.0 1021.1
18 12.11 З 4
{13}
50 км 9/9 600 м
[Sc]
-3.4 -7.0 76 -9 -9 1025.1 1024.2 -3.4
21 12.11 ЮЗ 7
{11}
50 км 6/4 600 м
[Sc Ci fib]
-5.2 -10.2 68 -13 -13 1027.9 1027.0
00 13.11 З 5
{11}
50 км 9/9 600 м
[Sc]
-4.8 -9.2 71 -12 -12 1030.0 1029.1
03 13.11 З 7
{9}
50 км 9/9 600 м
[Sc]
-5.0 -7.8 81 -13 -13 1031.7 1030.8
06 13.11 З 7
{10}
9000 м слабый ливневой снег 9/9 300 м
[Cb cap]
-5.0 -7.8 81 -13 -13 1033.0 1032.1 -2.6 0.0
09 13.11 З 6
{10}
9000 м слабый ливневой снег 10/10 300 м
[Cb cap]
-4.8 -8.0 78 -12 -12 1033.9 1033.0
12 13.11 З 5
{8}
27 км {ливн. осадки} 10/10 600 м
[Sc]
-4.8 -8.4 76 -12 -12 1035.0 1034.1
15 13.11 ЮЗ 4
{8}
28 км 9/9 600 м
[Sc]
-5.6 -8.6 79 -12 -12 1035.2 1034.3
18 13.11 ЮЗ 3
{5}
30 км 9/9 600 м
[Sc]
-5.4 -9.2 75 -11 -11 1034.9 1034.0 -5.8 0.0
21 13.11 Ю 2
{4}
50 км 9/9 600 м
[Sc]
-6.8 -9.2 83 -11 -11 1034.9 1034.0
00 14.11 штиль 0
{3}
50 км 9/9 600 м
[Sc]
-4.6 -8.1 76 -5 -5 1033.2 1032.3
03 14.11 ЮВ 4
{5}
50 км 10/10 600 м
[Sc]
-2.2 -5.8 76 -8 -8 1032.1 1031.2
06 14.11 Ю 5
{8}
50 км 10/8 600 м
[Sc Ci fib]
-1.4 -5.4 74 -8 -8 1030.8 1029.9 -1.4
09 14.11 ЮВ 5
{9}
50 км 10/10 600 м
[Sc]
-1.4 -6.6 68 -7 -7 1029.3 1028.4
12 14.11 ЮВ 6
{13}
50 км 10/10 600 м
[Sc]
+0.1 -2.5 83 -6 -6 1027.5 1026.6
15 14.11 Ю 11-15
{16}
6000 м слабый ливневой снег 10/10 300 м
[Cb cap]
0.0 -1.7 88 -9 -9 1024.4 1023.5
18 14.11 Ю 13-16
{19}
5000 м слабый ливневой снег {метель} 10/10 300 м
[Cb cap]
-0.4 -2.2 88 -10 -10 1022.1 1021.2 -1.6 0.3
21 14.11 Ю 12-13
{19}
20 км в посл. час ливневой дождь {метель} 10/10 600 м
[Cu Sc]
+0.6 -1.7 85 -8 -8 1020.1 1019.2
00 15.11 Ю 14-16
{20}
20 км {ливн. осадки, метель} 10/6 600 м
[Sc As op]
+0.7 -1.3 86 -8 -8 1017.6 1016.7
03 15.11 Ю 16-17
{22}
20 км {ливн. осадки} 10/8 600 м
[Sc As trans]
+0.9 -1.7 83 -8 -8 1013.8 1012.9
06 15.11 Ю 18-21
{25}
27 км {ливн. осадки} 10/10 300 м
[St]
+0.9 -0.5 90 -9 -9 1011.7 1010.8 +1.2 0.4
09 15.11 Ю 14-16
{24}
14 км слабый дождь {снег} 10/9 300 м
[Frnb As op]
+1.1 -0.9 86 -8 -8 1009.9 1009.0
12 15.11 Ю 17-19
{23}
18 км слабый дождь {снег} 10/9 300 м
[Frnb As op]
+1.6 0.0 89 -8 -8 1007.1 1006.2
15 15.11 Ю 8-10
{21}
8000 м дымка {дождь} 10/10 200 м
[St]
+1.5 +1.0 96 -6 -6 1007.3 1006.4
18 15.11 Ю 7
{10}
35 км {дождь} 8/4 300 м
[St Ac trans Ci fib]
+1.4 -0.3 88 -5 -5 1007.1 1006.2 +0.9 0.3
21 15.11 Ю 8
{10}
50 км 10/9 300 м
[St Ci fib]
+1.0 -0.1 92 -6 -6 1006.7 1005.8
00 16.11 Ю 9-11
{12}
50 км 9/9 600 м
[Sc]
+1.4 +0.3 92 -6 -6 1006.3 1005.4
03 16.11 Ю 8
{12}
18 км 10/10 300 м
[St]
+1.0 +0.2 94 -6 -6 1005.7 1004.8
06 16.11 Ю 7
{10}
22 км 10/8 300 м
[St Ci fib]
+1.1 -0.9 86 -6 -6 1005.2 1004.3 +1.4
09 16.11 ЮЗ 2
{8}
9000 м слабый ливневой снег 10/10 300 м
[Cb cap]
+0.9 -0.8 88 -3 -3 1005.0 1004.1
12 16.11 З 3
{5}
8000 м слабый ливневой снег 10/10 300 м
[Cb cap]
-0.9 -3.1 85 -6 -6 1004.4 1003.5
15 16.11 З 5
{8}
22 км {ливн. осадки} 10/10 300 м
[St]
-2.4 -5.3 80 -9 -9 1002.7 1001.8
18 16.11 СЗ 6
{11}
30 км {ливн. осадки} 10/10 300 м
[St]
-2.6 -5.9 78 -10 -10 1002.9 1002.0 -2.7 0.0
21 16.11 З 5
{9}
20 км в посл. час ливневой снег 9/9 300 м
[St]
-3.0 -6.1 79 -10 -10 1004.6 1003.7
00 17.11 СЗ 9-10
{12}
2300 м слабый ливневой снег {метель} 10/10 300 м
[Cb cap]
-2.8 -4.1 91 -12 -12 1007.5 1006.6
03 17.11 С 11-13
{14}
20 км сильный позёмок {ливн. осадки, метель} 10/8 300 м
[Cu Sc Ac trans Ci fib]
-2.1 -4.2 86 -11 -11 1011.9 1011.0
06 17.11 СЗ 9-10
{14}
9000 м слабый ливневой снег {метель} 9/9 300 м
[Cb cap]
-2.8 -7.3 71 -11 -11 1015.3 1014.4 -1.8 0.3
09 17.11 З 7
{13}
6000 м слабый ливневой снег {метель} 10/10 300 м
[Cb cap]
-5.2 -7.3 85 -14 -14 1018.2 1017.5
12 17.11 З 6
{11}
22 км позёмок {ливн. осадки, метель} 10/10 300 м
[Cu Sc]
-5.2 -8.5 78 -13 -13 1020.8 1019.9
15 17.11 СЗ 6
{9}
9000 м слабый ливневой снег {метель} 10/10 300 м
[Cb cap]
-5.0 -10.4 66 -12 -12 1022.4 1021.5

 

Местоположение метеостанции Уэлен (Чукотка, Россия): широта 66.16 долгота -169.00 высота над уровнем моря 7 м.

В архиве по умолчанию представлена погода в Уэлене за последнюю неделю. Архивные данные за месяц целиком и за предыдущие месяцы, начиная с января 2011 года, Вы можете получить, выбрав интересующий диапазон дат из раскрывающегося списка и нажав кнопку "Ввод!".

Внимание! Время в таблицах - всемирное. Для получения местного времени необходимо прибавить поправку, которая в Уэлене равна 12 ч.

Смотрите также архив погоды в соседних городах и на ближайших метеорологических станциях:

Погода на Мысе Ванкарем (Чукотка, Россия) (320 км)
Погода в Эгвекиноте (Чукотка, Россия) (448 км)
Погода на Мысе Шмидта (Чукотка, Россия) (520 км)
Погода на Острове Врангеля (Чукотка, Россия) (648 км)

Пояснения к столбцам:

Ветер - указаны скорость ветра в м/с - средняя за 10 мин, порывы в срок и между сроками (в фигурных скобках) и направление, откуда дует ветер: С - северный, СВ - северо-восточный, В - восточный, ЮВ - юго-восточный, Ю - южный, ЮЗ - юго-западный, З - западный, СЗ - северо-западный.
Видимость - горизонтальная дальность видимости в метрах или километрах. При видимости от 1 до 10 км при отсутствии осадков обычно наблюдается дымка, при ухудшении видимости до 1 км и менее - туман. В сухую погоду видимость может ухудшаться дымом, пылью или мглою.
Явления - указаны атмосферные явления, наблюдавшиеся в срок или в последний час перед сроком; фигурными скобками обозначены явления, наблюдавшиеся между сроками (за 1-3 часа до срока); квадратными скобками обозначены град или гололедные отложения с указанием их диаметра в мм.
Облачность - указаны через наклонную черту общая и нижняя облачность в баллах и высота нижней границы облаков в метрах; квадратными скобками обозначены формы облаков: Ci - перистые, Cs - перисто-слоистые, Cc - перисто-кучевые, Ac - высококучевые, As - высокослоистые, Sc - слоисто-кучевые, Ns - слоисто-дождевые, Cu - кучевые, Cb - кучево-дождевые. Подробнее классификацию облаков см. в Атласе облаков (PDF).
T - Температура воздуха - температура, измеренная на высоте 2 м над землей.
Td - Температура точки росы - температура, при понижении до которой содержащийся в воздухе водяной пар достигнет насыщения.
f - Относительная влажность воздуха - влажноcть воздуха, измеренная на высоте 2 м над землей.
Te - Эффективная температура - температура, которую ощущает одетый по сезону человек в тени. Характеристика душности погоды. При расчете учитывается влияние влажности воздуха и скорости ветра на теплоощущения человека.
Tes - Эффективная температура на солнце - температура, которую ощущает человек, с поправкой на солнечный нагрев. Характеристика знойности погоды. Зависит от высоты солнца над горизонтом, облачности и скорости ветра. Ночью, в пасмурную погоду, а также при ветре 12 м/с и более поправка равна нулю.
P - Атмосферное давление - приведенное к уровню моря атмосферное давление.
Po - Атмосферное давление - измеренное на уровне метеостанции атмосферное давление.
Tmin - Минимальная температура - минимум температуры воздуха на высоте 2 м над землей.
Tmax - Максимальная температура - максимум температуры воздуха на высоте 2 м над землей.
R - Количество осадков - Количество выпавших осадков за период времени, мм. При наведении курсора мыши на число - период времени, за который выпало указанное количество осадков.
R24 - Количество осадков - Количество выпавших осадков за 24 часа, мм.
S - Снежный покров - Высота снежного покрова, см. При наведении курсора мыши на число - состояние снежного покрова и степень покрытия местности в баллах.